Showing default

KUIPER-00089, 64834

Orbit data source: Space-Track

KUIPER-00089, 64834 is a payload satellite owned by Kuiper Systems (US) in LEO that was launched on Wed, 16 Jul 2025 UTC via an FALCON 9 launch vehicle from the Air Force Eastern Test Range (AFETR). Payload-class satellites include a variety of spacecraft equipped with specific instruments for various scientific and technological missions. These include communications satellites like Starlink; space stations such as the ISS; scientific satellites like the Hubble; Earth observation satellites from companies like Planet Labs, Umbra, and HawkEye 360; GPS; miniature CubeSats for education and research; and military/defense satellites.

Loading next visibility...
Identifier
64834, 2025-151U
Orbit
LEO
Country
Flag of USUS
Related business
Manufacturer
Kuiper Systems
Mission
Operational Commercial Communications
Bus & Motor
KUIPER, Unknown motor
Mass
~490 kg wet, ~490 kg dry
Launch date (UTC)
2025-07-16 (11 months ago)
Launch vehicle
FALCON 9
Launch site
Air Force Eastern Test Range (AFETR)
Object type
Payload
Rocket body
Debris
Shape & HBR
Box + 2 Pan, 3.4 m
Radar Cross Section
2.326 m², Large (>1 m²)

Expand to show TLE details & history
Last TLE update: 8 hours ago

TLE from 8 hours ago
0 KUIPER-00089
1 64834U 25151U   26166.86333704 -.00000117  00000-0  13675-4 0  9990
2 64834  51.8990 211.4717 0000532  84.8151 275.2872 14.79929268 50059
Epoch: 2026-06-15T20:43Z
TLE epoch observation values (Epoch: 2026-06-15T20:43:12.320Z)
Latitude
-0.00001°
Longitude
-3.47326°
Altitude
630.26 km
Speed
7.545 km/s
True Right ascension
14h 05m 53s
True Declination
0° 00' 00"
Sunlit
Object was in full shadow at epoch
Visualization orbit readout
Latitude
Unknown
Longitude
Unknown
Altitude
Unknown
Speed
Unknown
Apparent Right ascension
Unknown
Apparent Declination
Unknown
Sunlit
N/A
Visualization observer readout
Local Sidereal Time
14:52:18
Azimuth
Unknown
Elevation
Unknown
Doppler factor
Unknown
Orbital elements
Apogee altitude
630.372 km
Perigee altitude
629.626 km
Semi-major axis
7,008.136 km
Eccentricity
0.00005
Inclination
51.899°
RAAN
211.4717°
Arg. of periapsis
84.8151°
True anomaly
275.28113°
Mean anomaly
275.2872°
Eccentric anomaly
275.28416°
Mean motion
3.69947 °/min
Orbital period
97.31 mins
BSTAR
0.000013675
Loading maneuver chart data...
Computing Atmospheric mass density...
Loading historical data...
Loading historical data...
Loading historical data...
Loading historical data...
Loading historical data...
Loading historical data...
Loading historical data...

Documentation

Showing up to 5 results
|